Location: Knowlton
(51.2333°N, 1.2667°E)
Time: 03:23:56
(UTC+00:00)

SPOT 5 - Pass Details

Date: 18 April 2021
Orbit: 623 x 814 km, 98.2° (Epoch: 06 May)

Event Time Altitude Azimuth Distance (km) Brightness Sun altitude
Exits shadow 21:19:30 41° 153° (SSE) 971 3.0 -19.2°
Maximum altitude 21:21:05 80° 73° (ENE) 696 2.7 -19.4°
Drops below altitude 10° 21:25:52 10° 347° (NNW) 2,190 6.3 -19.8°
Sets 21:28:12 0° 347° (NNW) 3,146 7.3 -20.1°
